STARLINK-32321

Last updated on Tue Oct 08 2024 00:02:04 GMT+0000 (Coordinated Universal Time)

1 61065U 24164R 24281.58334491 -.01477589 00000+0 -35562-1 0 9993 2 61065 53.1593 347.1691 0001165 70.0398 142.3285 15.43728389 5096
UTC large
Height (km)
Speed (km/s)
/
Latitude / Longitude
Inclination (degrees)
Orbital Period (minutes)
Azimuth
Elevation
Range (km)
Doppler Factor

Next 0 passes for location: London (51.5072 / 0.1276)

Sorry there are no passes over London.